Piloten Info

Wichtige Hinweise:

  • Neue Tower Frequenz 122,330 kHz - keine Landung ohne Funkkontakt
  • PPR Betrieb
  • Temporäre Hindernisse (Baukräne) nahe dem Flugplatz durch Bauarbeiten entlang der Nürnberger Straße (Östliche Seite).
  • Starts auf RWY 09 sind nicht gestattet. Start generell auf RWY 27. Bei Planung Rückenwinde berücksichtigen!
  • Bei Anflügen auf RWY 27 sind Hindernisse vorhanden, aus diesem Grund die versetzte Schwelle27!
  • Der Flugverein Neumarkt führt seine Starts generell auf RWY 27 und Landungen auf RWY09 durch.
  • Es besteht keine Tankmöglichkeit.

Diese Hinweis sind als Ergänzung / Hilfe zur regulären Flugplanung gedacht.

Auszüge aus AIP VFR ohne Gewähr - es gelten die offiziellen Veröffentlichungen.




Wind Infos (noch im Aufbau)

Wind Speed
Wind Direction


METAR Informationen der nächstgelegenen Flughäfen


EDDN / Flughafen Nürnberg „Albrecht Dürer“

EDDN 041220Z 23010KT 170V280 CAVOK 25/11 Q1019 NOSIG

ETIC / Fliegerhorst Grafenwöhr AAF

ETIC 041156Z AUTO 25007KT 9999 SCT060 SCT120 22/09 A3008 RMK AO2 SLP181 T02170092 10228 20127 57011 $

ETIH / Fliegerhorst Hohenfels AAF

ETIH 041156Z AUTO 24005KT 9999 FEW060 23/11 A3013 RMK AO2 SLP195 T02290107 10229 20165 57009 $